GFSWCAN_sfc_temp_021.txt.gz
Temp
51 51 51 51 51 51 51 51 51 51 51 52 52 53 53 53 53 48 46 45 43 39 43 45 44 38 38 39 34 37 35 38 37 30 29 32 33 37 35 36 33 33 34 32 37 33 35 52 51 45 46 51 55 56
50 51 51 51 51 51 51 51 51 51 51 51 52 53 53 53 53 52 42 46 47 41 40 45 47 49 47 45 40 40 36 38 38 33 36 37 35 36 35 30 38 32 36 34 37 40 48 50 47 52 52 51 54 54
51 51 51 51 50 50 50 50 51 51 51 51 52 53 53 54 54 51 45 48 44 40 42 37 40 47 47 47 50 39 37 44 42 43 38 37 34 38 33 34 34 39 44 39 39 48 49 49 52 54 54 53 55 59
50 50 50 51 50 50 50 50 50 51 51 52 52 53 53 53 53 53 46 46 44 41 36 38 50 48 54 47 48 49 44 45 45 43 38 37 35 41 36 36 35 38 41 39 39 46 49 50 52 53 54 57 56 59
50 50 50 50 50 50 50 50 50 51 52 52 53 54 53 52 52 49 46 46 45 39 34 38 46 51 52 50 47 47 44 39 37 40 39 36 38 37 40 40 37 42 40 38 36 47 44 46 52 54 53 54 56 56
49 50 50 50 50 50 50 50 50 51 52 52 53 53 53 52 51 41 38 43 45 45 39 31 43 46 50 50 48 46 45 42 43 41 39 38 41 42 37 35 46 46 47 47 44 51 50 52 53 55 53 54 57 58
49 49 50 50 50 50 50 50 51 52 52 52 52 52 52 51 42 40 41 48 49 48 40 35 35 47 51 49 47 45 46 43 43 40 38 36 38 43 38 34 43 48 49 49 50 50 48 54 52 55 54 56 57 59
49 49 49 50 50 50 50 50 51 52 52 52 52 52 52 51 47 42 45 50 50 46 42 34 34 39 47 41 40 46 42 41 40 38 37 36 37 38 34 39 43 45 47 51 52 51 51 54 55 56 57 56 56 56
49 49 49 50 50 50 50 50 50 51 52 52 52 51 46 42 39 43 54 52 46 46 36 36 32 31 44 42 42 42 41 35 39 38 39 41 34 33 39 40 41 43 42 44 47 49 52 53 55 56 56 55 55 56
49 49 49 50 50 50 50 50 51 52 51 51 47 45 40 44 54 52 45 41 43 43 42 36 40 33 39 40 38 37 38 34 32 37 41 37 33 40 42 45 46 47 45 45 42 46 49 50 54 56 56 56 57 58
49 49 49 50 50 50 50 50 51 51 49 42 38 38 43 49 45 40 36 36 36 35 40 39 39 37 43 36 35 37 34 33 29 35 35 35 35 40 45 45 48 49 48 46 47 47 48 48 53 57 56 58 58 59
48 49 49 49 49 50 50 50 51 43 39 42 44 47 44 42 39 37 30 36 34 33 39 37 38 38 41 40 35 35 32 32 28 38 33 32 38 43 44 44 46 48 49 47 48 48 50 51 55 58 58 57 57 58
48 48 48 49 49 50 50 51 51 50 47 48 44 42 38 36 29 31 28 32 32 37 39 38 36 38 38 37 36 34 28 30 37 33 32 35 41 42 44 46 47 49 50 47 48 50 52 53 56 59 58 60 59 59
47 48 48 48 49 50 51 50 50 47 43 40 39 29 31 30 29 30 31 34 38 37 39 38 36 35 35 33 36 32 35 33 25 28 30 37 41 43 45 47 47 47 48 48 47 49 51 55 57 59 58 59 59 59
47 48 48 48 50 51 50 49 49 44 43 40 37 29 31 37 38 39 39 38 40 39 38 37 36 36 30 32 36 34 28 20 27 30 35 40 43 45 46 47 47 46 47 47 47 46 48 51 54 56 58 57 59 59
47 47 46 49 49 49 48 47 45 46 45 43 39 36 37 36 38 38 39 39 42 41 38 37 32 32 30 34 30 29 30 29 33 34 41 43 42 44 46 47 48 48 48 48 45 45 47 49 52 53 55 55 57 58
46 40 47 48 48 48 48 42 45 47 45 43 37 40 39 39 38 38 39 41 41 40 36 35 32 30 31 25 24 33 32 34 37 41 42 42 43 44 46 47 48 48 48 48 46 45 46 48 51 52 51 53 55 57
41 42 47 47 46 45 43 45 44 45 43 43 39 41 40 41 40 39 40 41 42 41 39 36 36 29 29 27 24 33 36 38 40 39 41 42 43 45 47 47 49 48 48 48 49 49 49 47 47 48 50 52 52 53
44 44 46 47 45 40 37 43 45 39 41 41 41 43 43 43 43 44 43 43 42 42 41 38 35 29 31 35 34 36 39 39 37 41 42 43 43 43 46 48 49 49 48 48 48 48 50 50 50 50 50 50 49 50
46 46 46 47 47 39 39 39 45 39 36 41 40 41 41 42 45 44 43 43 42 41 39 36 35 36 37 39 39 41 42 40 39 39 40 43 44 43 44 44 45 47 49 49 49 46 49 50 51 50 49 48 50 49
45 46 47 45 42 41 39 39 39 39 39 40 43 41 41 41 41 42 42 43 40 38 36 38 39 41 41 42 42 41 41 41 41 41 41 40 44 42 44 45 46 46 45 47 48 47 47 48 49 50 49 48 48 49
42 47 42 45 41 41 36 39 38 40 38 39 39 41 38 34 37 39 42 41 39 40 41 41 42 42 42 43 44 44 44 44 43 42 42 42 42 41 42 41 43 43 44 46 47 47 48 47 47 50 49 49 48 48
43 43 39 40 39 37 36 42 38 39 37 36 34 36 34 33 40 43 38 41 43 44 43 43 45 45 44 45 46 46 46 44 41 42 43 42 42 42 42 42 42 41 42 45 45 46 47 43 47 48 49 48 48 48
44 38 36 35 35 31 39 35 35 33 31 30 28 35 36 36 39 36 38 40 44 42 43 45 44 41 42 43 42 43 44 43 42 42 43 43 42 43 43 42 42 42 42 42 44 45 46 47 45 49 48 47 46 47
33 31 30 27 34 34 34 34 35 29 34 34 34 34 34 37 31 36 38 40 40 41 42 44 43 43 41 41 41 42 45 43 42 41 43 42 43 44 45 43 43 42 43 43 43 44 44 45 46 47 47 47 46 45
25 29 27 30 30 30 31 31 33 33 33 33 33 36 31 33 34 34 38 41 41 41 41 42 40 40 41 43 43 44 45 44 44 41 40 41 41 41 39 38 39 41 44 43 43 44 44 43 44 44 45 46 40 45
22 24 30 37 31 34 30 34 33 30 33 32 29 32 32 33 33 39 41 42 41 42 43 45 44 43 43 44 44 43 44 44 45 43 42 41 42 42 41 39 38 40 42 44 45 45 43 43 42 41 41 42 43 44
30 30 27 28 30 29 32 30 31 31 32 35 35 33 34 34 34 41 41 44 43 43 45 44 43 45 43 43 43 44 41 44 45 44 41 41 41 41 42 43 44 36 44 38 42 44 44 42 41 40 39 38 38 39
29 30 31 29 30 29 30 30 32 36 39 36 32 32 39 42 43 43 44 43 43 43 42 39 38 41 40 39 39 37 38 39 40 38 36 33 34 36 38 40 42 45 44 43 35 36 40 40 40 38 38 37 37 37
30 32 28 29 29 28 32 37 35 38 39 39 39 38 40 44 43 45 41 43 44 45 43 43 39 37 36 37 35 35 34 34 36 37 34 34 35 36 37 39 40 41 43 45 43 43 36 38 36 37 35 32 30 30
32 32 29 28 29 34 40 39 37 38 38 37 38 36 38 40 42 43 43 40 44 44 43 41 40 41 40 38 35 32 30 31 33 34 34 34 34 35 36 38 39 40 41 42 42 40 39 36 33 31 30 30 30 29
30 30 30 29 30 35 37 35 34 35 36 35 35 37 40 39 36 38 38 38 39 38 35 39 37 34 36 35 35 34 32 32 33 32 32 31 31 33 35 36 38 41 39 39 37 35 33 30 29 30 30 29 28 28
32 35 33 32 29 32 34 32 31 30 30 28 35 36 37 35 32 34 38 38 37 37 37 38 38 37 38 36 34 33 32 32 29 28 27 27 26 28 30 33 36 37 35 33 32 32 31 30 29 28 28 28 28 28

GFSWCAN_sfc_temp_024.txt.gz
Temp
50 51 51 51 51 51 51 51 51 51 51 52 52 53 53 53 53 48 42 44 43 38 39 41 43 37 39 38 34 38 36 38 35 32 29 28 30 35 34 36 33 34 32 30 32 29 31 48 48 39 43 47 49 50
50 50 50 51 51 51 51 51 51 51 51 52 52 53 53 53 53 52 43 44 46 41 41 43 45 47 44 45 39 40 38 37 39 33 35 32 34 35 34 29 40 32 37 34 36 38 48 49 50 52 49 48 50 50
50 51 50 50 50 50 51 51 51 51 51 52 52 53 53 53 53 52 45 47 44 39 39 40 40 48 46 46 49 37 39 43 40 43 38 36 32 38 31 34 35 40 43 38 39 47 47 50 54 55 53 50 53 54
50 50 50 50 50 50 50 50 51 51 51 52 52 53 54 54 53 52 46 47 44 40 36 39 51 48 53 48 47 47 46 46 44 43 39 36 34 41 35 35 35 38 41 39 39 45 47 53 52 51 52 53 54 55
49 50 50 50 50 50 50 50 50 51 51 52 53 54 54 53 52 48 45 48 45 40 35 38 45 49 50 49 47 47 44 42 40 39 37 34 39 39 41 38 36 41 38 37 37 45 44 46 52 53 50 51 54 54
49 49 50 50 50 50 50 50 50 51 52 52 53 53 53 52 51 40 36 41 46 46 39 34 43 44 49 49 47 45 43 43 41 40 40 40 39 41 35 34 40 44 46 45 43 49 48 50 52 56 53 53 54 54
49 49 49 50 50 50 50 50 51 51 52 52 52 52 52 51 42 39 40 46 48 47 39 36 35 46 49 47 47 45 46 43 43 41 39 35 36 38 33 30 40 44 45 48 50 49 47 51 48 53 56 56 55 57
49 49 49 49 50 50 50 50 51 51 51 52 52 52 51 50 48 42 47 50 49 43 42 34 34 39 47 41 40 44 42 41 41 39 36 34 36 34 30 38 43 45 45 47 48 48 47 50 51 52 57 56 53 55
48 49 49 49 49 50 50 50 50 51 51 51 51 51 46 41 39 42 53 51 49 43 37 36 32 32 43 42 42 39 40 37 42 38 39 40 34 31 38 40 42 45 44 43 46 46 47 47 52 51 55 55 52 54
48 49 49 49 49 49 49 50 50 51 51 50 45 43 39 42 52 51 42 39 40 41 42 36 40 34 39 40 38 36 36 34 34 37 41 36 34 41 43 43 45 46 47 48 40 41 44 47 51 52 54 54 56 54
49 49 49 49 49 49 49 50 50 51 48 41 39 37 43 49 42 38 35 34 34 33 38 38 38 34 43 36 35 37 34 34 30 34 35 34 34 38 44 44 46 48 48 47 48 47 46 46 46 48 51 55 57 57
49 49 48 48 49 49 49 50 50 41 39 41 42 45 45 39 37 36 29 33 34 33 37 35 36 37 41 39 32 35 32 34 27 37 34 32 38 44 45 46 46 48 49 48 50 47 48 48 49 50 51 54 57 58
48 48 48 48 48 49 50 50 50 49 47 47 43 41 36 35 28 32 29 32 32 37 38 36 34 36 37 35 34 29 26 30 35 31 31 36 41 45 46 46 47 50 49 48 49 49 49 50 51 51 52 54 57 56
48 48 48 48 48 49 50 50 50 46 42 40 38 33 33 30 30 29 30 33 38 36 37 35 33 33 33 32 36 27 34 30 19 21 29 37 41 44 45 47 47 48 48 48 48 49 48 49 51 54 55 57 58 56
48 48 48 47 49 49 49 49 49 41 41 38 35 30 33 38 38 38 37 36 38 38 37 34 34 34 29 31 35 30 27 17 26 27 35 39 42 42 44 46 47 47 47 47 48 46 47 48 49 52 55 57 57 56
48 47 44 48 48 48 48 47 43 42 42 41 38 34 36 37 38 38 38 37 40 38 36 35 32 31 29 33 24 29 30 22 32 34 37 40 40 41 43 46 46 48 48 48 48 47 46 47 48 50 52 54 56 56
47 40 46 48 47 47 47 41 42 43 41 40 35 38 37 37 39 40 39 41 39 39 35 33 32 30 30 23 24 33 32 31 34 38 41 41 39 41 42 46 46 47 47 48 48 49 49 48 47 48 49 51 53 56
42 42 46 47 46 44 41 42 41 41 39 40 36 38 37 39 38 40 40 41 41 38 37 36 34 28 21 19 20 27 33 35 37 39 40 40 41 42 44 45 45 46 47 48 48 48 50 50 48 47 48 49 50 52
45 45 47 47 45 40 36 40 42 36 39 39 38 38 39 39 39 42 41 41 41 41 39 37 34 30 30 32 33 34 36 36 36 38 39 41 42 42 43 44 44 44 45 47 47 47 48 49 49 49 49 50 50 52
47 46 46 47 46 39 38 38 43 37 34 39 38 37 38 39 41 40 40 40 39 38 36 35 35 36 35 37 38 38 39 39 37 37 39 41 43 42 42 41 41 42 44 47 48 44 48 47 48 49 49 47 47 48
44 44 47 46 43 41 40 38 38 37 37 37 39 38 38 37 37 37 38 39 37 35 35 38 39 41 41 40 40 40 40 39 38 39 39 39 42 41 42 42 42 42 41 43 44 45 46 46 48 49 48 48 48 48
42 45 43 45 40 40 36 39 36 38 36 38 37 38 36 30 34 37 38 37 36 39 39 40 41 42 41 41 42 41 42 42 41 40 40 40 40 40 41 40 39 41 41 41 42 43 45 46 46 48 48 47 47 49
43 41 39 39 36 37 36 41 36 37 35 36 34 34 33 31 36 39 35 37 39 43 43 42 43 43 44 44 45 44 44 43 41 41 42 40 41 41 40 41 40 40 40 41 42 43 43 41 46 47 48 47 47 48
42 37 34 32 32 30 37 34 34 31 31 31 30 35 35 34 36 33 33 35 41 40 39 42 42 40 40 41 41 42 43 42 41 41 42 41 40 41 41 41 41 41 40 40 42 43 44 45 43 47 47 46 46 47
33 31 32 27 33 33 32 33 33 28 33 34 33 33 32 34 29 33 34 37 38 39 39 40 39 39 40 40 40 41 43 44 41 41 40 40 40 40 40 41 41 42 41 41 42 43 43 44 44 45 45 44 44 43
27 27 27 30 30 30 32 30 31 32 33 33 32 34 29 30 32 33 35 39 38 38 38 39 38 38 39 42 41 40 43 44 42 39 39 39 40 40 39 38 38 41 42 40 42 43 42 42 42 41 42 43 39 42
21 22 29 35 31 33 29 32 31 29 33 32 29 30 30 31 32 35 38 38 38 40 39 40 41 42 40 40 41 44 44 43 43 42 41 40 40 39 39 38 38 39 41 43 43 43 41 40 40 39 39 40 40 42
29 30 27 29 29 29 30 29 31 31 32 34 33 32 32 32 31 37 38 42 40 39 38 38 40 41 41 41 42 43 41 41 42 41 39 39 38 38 39 41 42 34 39 38 42 43 41 40 39 38 37 36 37 38
29 29 30 28 29 27 29 30 32 34 38 37 32 32 35 39 40 40 42 41 41 40 40 39 37 38 36 36 36 36 38 40 40 37 37 34 34 36 37 38 40 43 44 41 33 35 37 37 37 37 36 36 36 38
27 30 27 28 28 27 31 34 34 38 39 39 37 36 37 38 40 41 44 42 39 38 41 40 38 38 37 37 34 33 32 33 35 37 34 33 35 36 37 38 39 40 41 43 41 39 34 37 35 36 34 33 35 34
31 32 29 28 30 32 36 40 39 36 36 36 37 34 35 36 37 40 38 40 41 42 41 41 40 41 40 38 36 35 34 34 34 35 34 34 34 35 36 37 38 40 40 40 39 37 35 33 31 30 30 30 31 31
28 29 29 27 27 31 38 32 32 33 35 33 33 34 34 33 34 35 37 38 40 40 37 39 36 34 35 34 32 33 31 32 31 33 33 32 32 33 34 36 38 39 37 36 34 33 33 31 29 29 29 29 28 29
27 29 30 31 27 30 34 33 30 30 30 28 33 35 35 32 32 34 39 38 37 36 35 34 34 34 34 34 33 32 31 30 28 27 27 27 26 28 32 34 35 35 34 33 33 32 30 30 29 29 29 28 28 29

GFSWCAN_sfc_temp_030.txt.gz
Temp
50 51 51 51 51 51 51 51 51 51 52 52 52 53 54 54 53 54 56 55 47 40 46 49 48 40 39 39 35 44 45 43 41 34 37 36 36 41 40 36 41 40 37 38 39 42 41 58 60 54 56 61 62 64
50 51 51 51 51 51 51 51 51 51 51 52 52 53 53 54 53 53 50 57 52 42 48 54 52 48 44 47 41 42 42 40 40 36 40 37 36 38 36 35 42 37 42 41 46 40 53 57 58 62 62 62 63 64
51 51 51 50 50 50 50 50 51 51 51 51 52 52 53 54 54 53 56 55 49 42 49 56 50 51 50 49 51 39 41 45 41 46 40 37 34 38 35 35 38 47 51 44 49 54 56 52 59 62 63 63 66 68
50 50 50 50 50 50 50 50 50 51 51 51 52 52 53 53 53 53 53 57 53 45 37 52 61 54 59 50 47 47 45 45 48 46 41 38 37 45 37 36 36 39 41 44 50 54 57 54 55 59 60 64 66 68
50 50 50 50 50 50 50 50 50 50 51 51 52 53 53 53 52 54 54 57 59 47 41 49 55 61 56 52 48 45 44 42 43 42 42 41 49 47 49 42 41 47 45 40 39 52 52 53 56 59 58 59 64 66
50 50 50 50 50 50 50 50 50 50 51 51 52 52 52 52 52 55 54 59 61 52 40 37 59 57 59 58 54 46 46 45 45 44 44 51 54 49 42 45 49 52 52 53 50 58 58 59 59 62 59 59 65 67
50 50 50 50 50 50 50 50 50 51 51 51 51 52 51 52 56 58 55 57 54 53 41 40 51 60 57 57 52 47 50 49 49 50 48 50 48 50 45 44 52 55 53 52 56 58 57 59 58 60 59 63 65 70
49 50 50 50 50 50 50 50 51 50 50 51 51 51 51 51 52 56 59 51 54 51 46 38 45 54 57 53 49 61 49 48 46 47 47 40 43 45 40 42 43 46 48 49 55 56 57 60 61 60 63 65 65 67
49 49 50 50 50 50 50 50 50 50 50 51 51 52 56 57 59 51 53 52 55 52 40 40 37 35 60 54 53 54 58 43 56 42 39 40 38 36 38 40 41 43 43 44 48 51 56 57 60 60 63 64 63 66
49 49 50 50 50 50 50 50 50 50 50 51 56 57 54 56 52 52 51 45 45 47 47 41 52 40 50 51 51 49 56 48 42 47 48 40 39 46 50 50 48 48 47 47 43 45 50 55 59 61 62 64 64 65
49 49 50 50 50 50 50 50 50 50 53 57 54 54 55 54 51 49 44 42 44 41 45 47 52 47 50 40 42 47 43 51 41 45 40 43 41 48 54 53 50 48 48 49 50 50 51 55 55 59 62 64 65 66
49 49 49 49 50 50 50 50 49 54 54 50 48 48 47 45 51 47 47 50 47 48 53 51 54 52 48 47 42 46 39 47 40 51 42 41 50 55 54 53 52 49 48 49 50 50 54 58 57 58 62 63 64 66
49 49 49 49 50 50 50 50 50 49 51 54 42 40 42 50 37 43 40 47 48 56 58 57 51 54 48 49 45 43 35 37 48 41 42 48 54 57 55 55 54 53 50 50 50 53 53 57 59 62 62 64 64 66
48 48 49 49 49 50 50 50 49 50 51 48 41 35 43 43 47 50 50 56 60 59 59 58 56 49 50 45 45 36 45 42 35 33 37 49 53 56 57 58 55 52 50 49 50 53 53 56 60 63 65 66 66 66
48 48 48 50 49 49 49 49 49 53 51 45 45 37 45 54 57 59 61 59 60 62 59 56 55 53 47 44 45 40 36 32 34 37 45 52 54 55 56 56 56 54 51 49 51 53 54 56 59 61 63 66 67 67
47 48 52 48 48 48 48 50 54 53 47 43 45 45 53 52 55 57 57 57 64 61 61 58 52 47 44 44 36 32 33 33 35 40 53 56 54 55 56 57 57 58 55 54 52 53 57 56 55 57 62 62 63 64
47 49 50 49 48 48 48 48 52 43 43 42 43 54 54 56 55 58 61 60 64 58 52 57 45 43 48 42 35 38 34 37 48 55 58 56 55 56 57 58 58 58 58 57 57 54 55 56 55 55 55 55 56 61
44 49 50 48 47 47 50 50 49 46 41 47 47 55 56 57 57 59 61 62 59 58 57 51 58 45 38 34 39 42 46 54 56 56 58 58 59 58 60 59 59 59 58 58 59 56 56 55 52 50 53 53 53 53
47 48 48 48 47 43 43 48 49 43 45 51 55 57 57 57 60 61 62 62 61 63 60 55 49 47 48 54 55 57 59 57 57 60 59 59 60 59 59 60 61 60 59 58 58 59 59 59 58 56 53 55 53 52
46 47 48 47 46 41 42 47 53 45 42 51 54 54 56 56 60 59 60 60 57 56 52 49 51 56 58 61 62 62 62 64 61 58 59 60 64 61 61 60 61 61 62 61 61 52 60 60 59 59 57 50 49 50
47 51 47 49 44 42 40 47 47 48 50 49 54 55 55 58 54 55 55 60 54 52 51 57 58 62 65 65 66 65 64 63 61 61 61 61 63 64 64 64 62 63 62 62 60 59 56 58 56 56 56 54 51 49
47 47 44 46 40 40 38 48 47 51 48 50 51 54 51 49 51 54 59 52 53 57 60 60 61 63 63 63 63 63 65 64 63 62 45 51 61 63 64 63 61 61 62 62 61 60 60 61 59 55 53 50 50 51
46 45 41 40 36 35 37 50 42 47 43 48 50 47 49 49 55 56 49 54 59 64 64 63 63 64 64 66 65 64 64 63 63 63 63 63 65 65 65 65 64 60 59 61 62 62 59 47 54 53 55 54 55 52
45 39 35 34 34 33 41 38 39 42 46 44 44 44 48 51 54 49 46 53 61 65 62 60 62 61 62 61 62 63 63 64 64 63 64 62 62 62 64 64 65 63 61 62 61 60 59 58 46 54 54 48 49 49
33 32 33 29 35 33 34 38 39 39 38 44 42 44 47 53 45 46 45 56 57 58 57 59 61 61 60 62 63 64 64 65 63 60 62 64 64 62 63 65 63 62 63 61 58 57 56 57 51 51 50 50 48 47
27 34 31 33 34 34 39 38 39 41 43 42 42 49 51 46 41 41 48 54 55 55 54 54 55 56 59 63 62 61 61 65 64 61 62 64 64 64 62 61 61 58 62 61 59 57 55 53 50 50 50 49 41 46
27 31 37 46 41 39 37 43 45 40 38 39 43 43 41 34 39 48 52 55 55 56 58 59 57 56 58 62 65 66 65 65 64 64 65 64 64 64 64 60 56 58 61 59 59 57 56 55 53 50 49 47 45 44
34 39 35 39 40 39 35 38 39 38 41 45 40 36 36 40 43 52 55 57 57 58 59 61 60 59 59 63 65 64 64 63 60 60 60 60 60 61 60 60 58 34 56 55 57 57 56 55 53 51 48 46 45 45
32 40 42 36 39 39 39 38 40 46 50 47 39 40 45 52 53 54 56 57 58 58 56 56 57 59 61 62 64 64 63 61 57 53 53 53 53 55 59 59 58 59 57 52 32 41 49 51 52 52 49 49 48 47
35 42 36 36 34 34 41 46 45 50 52 51 51 50 51 53 54 56 54 54 53 53 54 55 56 56 57 57 54 54 61 64 63 60 56 55 56 58 59 58 58 59 59 57 56 51 34 48 43 52 49 47 45 43
44 41 35 36 36 42 46 48 48 49 48 46 47 45 46 50 47 45 40 43 50 52 52 52 55 55 55 56 54 49 48 53 53 54 57 59 58 57 57 57 59 59 58 58 56 55 53 51 49 46 45 43 41 41
38 35 35 33 36 45 47 44 42 43 40 36 38 43 43 39 37 36 36 37 37 37 36 41 45 46 51 52 52 51 42 50 50 50 50 51 52 53 55 57 57 56 55 53 52 50 49 46 44 43 42 41 41 41
34 36 36 36 35 37 43 41 38 38 40 39 42 43 42 38 30 32 36 36 35 36 35 35 36 37 39 41 43 44 42 43 35 31 32 32 32 41 51 52 51 50 50 49 49 48 46 44 43 42 41 40 39 38

GFSWCAN_sfc_temp_033.txt.gz
Temp
51 51 51 51 51 51 51 51 51 51 52 52 52 53 53 54 54 54 58 60 51 46 54 54 50 41 39 39 36 49 49 49 45 36 38 38 38 42 40 39 40 43 39 45 47 44 36 60 64 57 58 65 67 68
51 51 51 51 51 51 51 51 51 51 51 51 52 52 53 54 54 54 52 61 56 45 53 60 60 56 49 46 40 43 43 42 44 37 43 38 35 38 36 33 47 39 45 45 49 43 51 59 59 63 65 64 67 69
51 52 51 51 51 51 51 51 51 51 51 51 52 52 53 54 54 53 54 55 52 48 55 57 53 57 55 49 51 40 45 45 43 46 41 40 35 39 35 36 37 41 50 49 52 47 53 59 63 64 66 65 68 71
51 51 51 51 51 51 51 51 51 51 51 51 52 52 53 53 53 53 52 60 54 52 42 56 63 54 61 54 50 48 46 47 45 51 46 45 39 44 40 39 37 42 46 48 46 47 55 59 61 63 65 68 68 71
50 50 51 51 51 51 51 51 51 51 51 52 52 53 53 52 52 54 55 61 61 53 45 55 62 64 65 58 52 48 46 43 43 44 45 46 53 50 49 48 42 49 45 40 38 49 51 54 63 64 64 64 67 68
50 50 50 51 51 51 51 51 51 51 51 52 52 52 52 52 51 53 50 63 63 58 43 41 64 61 61 60 58 47 47 45 46 50 51 53 56 49 46 43 46 51 58 59 54 59 58 62 63 65 65 65 67 68
50 50 50 50 51 50 51 51 51 51 51 51 51 51 51 52 57 59 55 60 60 59 46 42 54 60 64 58 58 56 54 53 52 51 48 51 50 51 47 38 46 51 53 56 58 59 57 60 58 64 67 68 68 70
50 50 50 50 50 50 51 51 51 51 51 51 51 51 52 51 53 55 60 56 60 55 52 40 47 55 62 52 51 58 53 55 49 50 51 47 50 50 43 50 50 49 49 49 52 55 58 62 63 65 68 69 68 70
49 50 50 50 50 50 50 51 51 51 51 51 51 52 56 57 54 53 52 53 57 51 43 44 40 39 64 54 54 57 57 47 55 49 49 47 48 42 44 44 48 48 45 46 52 54 55 57 62 65 67 67 67 69
49 49 50 50 50 50 50 51 51 51 51 51 55 59 55 54 52 53 51 45 46 50 51 49 60 47 60 58 48 50 55 52 43 48 54 47 47 54 56 56 53 49 47 48 44 45 51 55 60 62 62 67 68 69
49 49 49 50 50 50 51 50 50 50 51 62 58 59 61 55 60 54 43 43 46 43 51 56 58 54 63 46 45 51 45 52 44 49 51 49 48 54 59 58 56 49 49 50 50 51 55 58 57 61 63 67 69 69
48 49 49 50 50 51 50 50 50 54 53 50 48 51 54 47 45 42 47 54 53 53 58 58 60 61 56 59 46 47 42 49 40 59 47 45 51 58 60 60 59 51 50 50 51 53 57 56 58 59 63 67 68 70
48 48 49 49 49 50 50 50 50 49 51 53 44 40 42 49 39 44 42 51 54 61 63 62 57 60 57 54 47 43 37 38 50 42 45 51 56 61 60 61 60 56 51 50 51 55 56 55 60 64 66 69 69 70
47 48 48 49 49 50 50 50 50 51 52 50 49 37 44 45 49 53 56 59 65 64 64 65 61 54 55 48 46 37 46 46 35 34 38 53 57 60 61 62 62 59 53 54 50 54 56 56 59 63 64 66 70 69
47 47 48 49 50 50 50 49 49 53 54 50 52 38 47 56 62 64 66 65 66 67 64 61 60 61 48 46 47 43 38 34 36 39 49 55 58 59 60 61 61 60 57 56 55 55 55 55 56 58 61 63 66 70
47 47 51 50 49 49 49 51 54 57 55 52 51 49 59 57 59 62 62 61 67 66 68 62 55 51 47 49 41 35 35 34 37 42 56 58 57 59 60 61 61 62 59 58 54 57 59 58 57 59 60 59 62 63
46 52 49 49 49 48 50 48 52 46 44 45 47 57 58 59 60 62 65 65 69 63 56 55 47 47 55 46 39 41 38 40 52 58 60 59 58 59 61 62 62 62 60 59 54 55 58 61 61 58 55 55 57 60
50 55 50 48 48 50 52 49 49 49 43 50 50 58 62 63 61 62 65 67 64 61 60 53 58 48 40 36 42 46 50 59 63 63 64 63 63 62 64 62 63 63 62 60 63 58 56 56 56 58 59 59 57 55
48 49 47 47 47 44 44 50 53 46 51 57 60 61 62 63 65 65 65 66 66 66 62 58 51 50 51 57 56 60 61 62 60 59 63 63 63 62 63 64 65 63 63 63 63 63 58 57 58 56 58 60 58 56
46 47 47 48 48 42 42 49 57 50 49 57 60 59 60 62 65 65 65 64 63 60 55 53 55 59 59 64 66 65 66 65 64 58 60 62 65 63 62 63 65 64 66 66 66 58 65 61 58 57 60 58 58 55
49 51 51 51 48 47 43 48 49 53 55 53 60 60 58 63 61 60 60 64 59 55 54 60 62 65 67 68 70 69 67 67 63 63 62 61 63 67 63 66 67 66 65 66 63 60 56 61 61 61 60 57 56 55
50 49 48 49 46 46 41 51 49 57 52 53 54 58 54 52 55 59 64 59 57 60 61 62 64 66 66 66 68 68 69 67 67 63 53 57 64 60 58 65 67 65 65 65 64 60 59 62 62 61 58 57 55 56
49 47 42 45 41 38 38 53 43 49 45 51 55 51 52 54 58 67 55 60 61 65 66 67 67 68 66 68 69 69 69 66 64 66 65 67 67 67 64 64 67 65 63 65 66 62 59 47 56 61 57 56 57 55
47 39 34 37 34 34 46 40 42 45 48 46 46 45 51 55 61 55 51 57 63 67 65 64 65 64 66 65 65 64 64 66 65 66 65 65 64 64 67 68 69 69 66 66 61 60 59 57 49 61 60 52 52 51
32 32 34 30 38 32 37 41 43 42 41 45 43 45 48 54 47 49 50 56 59 62 65 65 64 65 64 64 65 67 69 67 65 62 63 67 61 64 65 66 66 66 67 65 61 59 56 56 56 59 57 55 50 48
26 35 32 38 39 38 40 38 42 43 45 44 45 50 51 48 40 42 53 58 56 59 61 62 61 61 62 66 61 62 59 67 66 61 63 69 66 65 65 65 63 61 67 66 63 60 55 55 57 56 56 52 40 47
26 32 42 50 45 45 42 45 45 43 41 40 44 45 45 39 41 52 56 62 57 63 67 67 64 62 62 64 67 68 66 66 67 65 63 68 69 69 68 63 60 62 65 64 63 61 59 56 56 56 56 54 51 47
36 39 35 40 42 43 37 39 40 37 40 48 48 38 35 41 43 51 53 60 63 67 65 65 65 66 63 64 67 68 68 68 68 67 65 68 67 67 66 66 63 37 59 58 59 63 61 60 58 56 55 54 52 49
36 42 41 36 39 40 40 39 40 46 51 48 40 35 40 45 50 49 54 55 56 61 60 58 58 62 63 64 65 66 65 66 59 56 56 56 58 61 65 63 61 63 61 57 32 43 52 55 56 57 55 55 54 52
36 42 36 37 36 36 42 47 47 52 54 52 52 51 52 54 53 54 55 57 56 57 58 58 59 59 58 58 56 56 51 61 64 60 57 58 60 64 64 63 63 64 62 62 60 54 34 49 43 56 54 53 51 47
43 42 38 37 37 45 47 51 52 52 51 51 54 50 50 53 45 39 38 40 51 54 53 53 53 54 55 55 47 51 54 59 59 60 64 62 61 62 63 63 64 63 59 58 59 60 57 57 54 51 50 48 46 45
38 36 35 33 37 46 49 48 47 47 49 46 46 47 46 46 40 33 35 36 38 36 34 36 39 45 53 54 52 52 44 56 55 58 60 60 60 60 61 62 61 60 59 56 57 56 55 51 49 48 46 45 45 44
38 39 38 36 36 38 44 42 42 42 43 42 45 45 39 37 30 34 38 37 35 35 35 35 35 36 37 41 46 45 44 46 37 32 34 33 32 39 54 59 57 56 55 54 51 51 50 49 47 47 46 44 43 42